Preview of NWS' New Version of Forecast
This preview is not operational and should not be used for support decisions.

Regional Weather Roundup (RWR)

Issued by Columbia, SC (CAE)

                            
604 
ASUS42 KCAE 212310
RWRCAE
REGIONAL WEATHER ROUNDUP
NATIONAL WEATHER SERVICE COLUMBIA SC
700 PM EDT THU JUN 21 2018

NOTE: "FAIR" INDICATES FEW OR NO CLOUDS BELOW 12,000 FEET WITH NO
SIGNIFICANT WEATHER AND/OR OBSTRUCTIONS TO VISIBILITY.

NOT ALL STATIONS ARE QUALITY CONTROLLED BY THE NATIONAL 
WEATHER SERVICE. USE DATA WITH CAUTION...ESPECIALLY 
DEWPOINT OBSERVATIONS.

SCZ001>056-GAZ040-063>065-077-220000-
...UPSTATE SOUTH CAROLINA...
  
CITY           SKY/WX    TMP DP  RH WIND       PRES   REMARKS
ANDERSON       LGT RAIN  75  73  93 SW9       29.84S                  
LIBERTY        MOCLDY    74  74 100 SW8       29.83S                  
SPARTANBURG    PTSUNNY   81  66  61 W17G26    29.82R                  
CLEMSON        FAIR      74  73  97 VRB3      29.85S                  
GREENVILLE     PTSUNNY   77  73  87 W10       29.85R                  
GREENWOOD      FAIR      84  72  67 W8        29.83R                  
GREER          RAIN      74  73  97 SW12      29.85R FOG              
ROCK HILL      FAIR      87  71  58 SW7       29.80R                  
CHESTER        FAIR      88  64  45 SW5       29.81R                  
LAURENS        FAIR      82  72  69 SW6       29.82R                  


...CENTRAL SOUTH CAROLINA...
  
CITY           SKY/WX    TMP DP  RH WIND       PRES   REMARKS
COLUMBIA APT   PTSUNNY   93  69  45 W10       29.78R HX  98           
COLUMBIA OWENS FAIR      94  64  37 W8        29.79R HX  95           
MCENTIRE ANGB  PTSUNNY   92  68  46 SW8       29.79R HX  96           
ORANGEBURG     FAIR      93  68  43 W10       29.80R HX  97           
SUMTER SHAW    FAIR      92  70  48 SW9       29.76R HX  98           
NEWBERRY       FAIR      88  70  55 W8        29.84R                  
AIKEN          CLOUDY    90  68  48 SW7       29.84R                  
BARNWELL       FAIR      91  72  52 SW7       29.81R HX  98           
MANNING        FAIR      90  63  40 W3        29.78R                  
CAMDEN         FAIR      95  66  38 SW12      29.79R HX  98           
WINNSBORO      FAIR      88  66  48 SW8       29.81R                  


...EASTERN AND COASTAL SOUTH CAROLINA...
  
CITY           SKY/WX    TMP DP  RH WIND       PRES   REMARKS
MYRTLE BEACH   FAIR      93  73  52 W7        29.78R HX 102           
N MYRTLE BCH   FAIR      86  78  77 S8        29.77R HX  98           
CONWAY         FAIR      90  73  58 SW3       29.77R HX  98           
MARION         FAIR      91  70  49 SW9       29.76S HAZE    HX  97   
HARTSVILLE     FAIR      90  66  45 SW6       29.78R                  
FLORENCE       FAIR      94  65  38 W12       29.77R HX  96           
DARLINGTON       N/A     92  71  50 SW12      29.77R HX  98           
CHARLESTON APT FAIR      95  71  45 W8        29.79S HX 102           
MOUNT PLEASANT FAIR      95  72  46 W7        29.80R HX 103           
WALTERBORO     FAIR      91  70  49 W9        29.81R HX  97           
BEAUFORT       FAIR      94  72  48 W7        29.81  HX 102           


...EASTERN GEORGIA...
  
CITY           SKY/WX    TMP DP  RH WIND       PRES   REMARKS
AUGUSTA BUSH F FAIR      91  70  49 SW7       29.79R HX  96           
AUGUSTA DANIEL FAIR      92  71  50 SW3       29.82R HX  98           
THOMSON        FAIR      84  72  67 N7        29.88R                  
CLAXTON        FAIR      90  79  70 CALM      29.83R HX 106           
SYLVANIA       FAIR      93  73  52 SW3       29.82S HX 102           
STATESBORO     FAIR      91  69  47 SW6       29.82S HX  95           
SAVANNAH       FAIR      93  70  46 W8        29.82S HX  99           


...SOUTHERN NORTH CAROLINA...
  
CITY           SKY/WX    TMP DP  RH WIND       PRES   REMARKS
CHARLOTTE      PTSUNNY   88  70  55 SW6       29.79R                  
MONROE         PTSUNNY   87  69  54 SW7       29.78R                  
WADESBORO      FAIR      91  65  42 CALM      29.76R                  
ROCKINGHAM     FAIR      92  67  42 W7        29.77R HX  95           
RUTHERFORDTON  FAIR      84  72  67 SW7       29.80F                  
ASHEVILLE      CLOUDY    76  67  73 N16       29.88R                  

$$